Tracking 29799 objects as of 10-Oct-2024
HD Live streaming from Space Station
objects crossing your sky now

STARLINK-31336

Track STARLINK-31336 now!
10-day predictions
STARLINK-31336 is classified as:


NORAD ID: 58944
Int'l Code: 2024-027P
Perigee: 481.9 km
Apogee: 483.1 km
Inclination: 53.2 °
Period: 94.1 minutes
Semi major axis: 6853 km
RCS: Unknown
Launch date: February 10, 2024
Source: United States (US)
Launch site: AIR FORCE WESTERN TEST RANGE (AFWTR)
Your satellite tracking list
Your tracking list is empty




NASA's NSSDC Master Catalog

Two Line Element Set (TLE):
1 58944U 24027P   24284.15408063  .00011145  00000-0  38829-3 0  9997
2 58944  53.1606 184.5051 0000869  52.3215 307.7864 15.30163511 38235
Source of the keplerian elements: AFSPC